CW5834 Weather Reports


time (UTC)temp
F
wind
direction
speed
knots
gust
knots
rain 1hr
in
rain 24hr
in
rain mn
in
humidity
%
barometer
mb
20260508115517 41 0.0 1.7 0.00 0.00 0.00 94 1018.5
20260508114517 40 0.0 1.7 0.00 0.00 0.00 94 1018.5
20260508113517 39 0.0 0.0 0.00 0.00 0.00 94 1018.2
20260508112517 38 0.0 0.0 0.00 0.00 0.00 93 1017.9
20260508111517 38 0.0 1.7 0.00 0.00 0.00 93 1017.8
20260508110517 38 0.0 1.7 0.00 0.00 0.00 93 1017.6
20260508105517 38 0.0 1.7 0.00 0.00 0.00 93 1017.4
20260508104517 38 0.0 0.9 0.00 0.00 0.00 92 1017.5
20260508103517 38 0.0 0.0 0.00 0.00 0.00 92 1017.5
20260508102517 39 0.0 1.7 0.00 0.00 0.00 93 1017.5
20260508101517 39 0.0 0.0 0.00 0.00 0.00 92 1017.3
20260508100517 39 0.0 0.9 0.00 0.00 0.00 92 1017.1
20260508095517 39 0.0 0.0 0.00 0.01 0.00 92 1017.2
20260508094517 39 0.0 0.9 0.00 0.01 0.00 92 1017.0
20260508093537 39 0.0 0.0 0.00 0.01 0.00 91 1017.0
20260508092517 40 0.0 0.0 0.00 0.01 0.00 91 1017.1
20260508091517 40 0.0 0.0 0.00 0.01 0.00 92 1016.9
20260508090517 40 0.0 0.9 0.00 0.01 0.00 92 1016.7
20260508085517 40 0.0 0.0 0.00 0.01 0.00 92 1016.8
20260508084516 40 0.0 0.9 0.00 0.01 0.00 92 1016.8
20260508083516 40 0.0 0.0 0.00 0.01 0.00 91 1016.8
20260508082517 41 0.0 0.0 0.00 0.01 0.00 91 1016.6
20260508081516 41 0.0 1.7 0.00 0.01 0.00 92 1016.6
20260508080516 41 0.0 0.0 0.00 0.01 0.00 91 1016.5
20260508075516 41 0.0 0.0 0.00 0.02 0.00 91 1016.7
20260508074517 42 0.0 0.0 0.00 0.02 0.00 91 1016.7
20260508073519 42 0 0.9 0.9 0.00 0.02 0.00 90 1016.7
20260508072516 42 0.0 1.7 0.00 0.02 0.00 90 1016.8
20260508071516 42 0 0.9 0.9 0.00 0.02 0.00 92 1016.5
20260508070516 42 0.0 1.7 0.00 0.02 0.00 91 1016.8
20260508065516 42 0.0 0.0 0.00 0.02 0.00 90 1016.7
20260508064516 42 0.0 0.0 0.00 0.02 0.00 90 1016.7
20260508063516 43 0.0 1.7 0.00 0.02 0.00 90 1016.8
20260508062536 43 0.0 1.7 0.00 0.02 0.00 89 1017.0
20260508061516 43 0.0 1.7 0.00 0.02 0.00 90 1016.8
20260508060516 43 0.0 0.9 0.00 0.02 0.00 89 1016.8
20260508055516 43 0.0 0.0 0.00 0.02 0.00 88 1016.8
20260508054516 44 0.0 1.7 0.00 0.03 0.00 89 1016.8
20260508053516 44 0.0 1.7 0.00 0.03 0.00 90 1016.9
20260508052516 44 0.0 0.0 0.00 0.03 0.00 89 1016.9
20260508051516 44 0.0 1.7 0.00 0.03 0.00 89 1016.7
20260508050536 44 0.0 1.7 0.00 0.03 0.00 89 1016.8
20260508045516 44 0.0 0.0 0.00 0.03 0.00 89 1016.7
20260508044516 44 0.0 1.7 0.00 0.03 0.00 89 1016.5
20260508043516 44 0.0 0.9 0.00 0.03 0.00 89 1016.4
20260508042516 45 0.0 0.0 0.00 0.03 0.00 88 1016.2
20260508041516 45 0.0 1.7 0.00 0.03 0.00 88 1016.1
20260508040536 46 0.0 0.0 0.00 0.03 0.00 89 1016.1
20260508035537 46 0.0 1.7 0.00 0.03 0.03 89 1016.2
20260508034517 46 0.0 0.0 0.00 0.03 0.03 88 1015.9
20260508033517 46 0.0 0.0 0.00 0.03 0.03 88 1016.0
20260508032517 46 0.0 0.0 0.00 0.03 0.03 88 1015.8
20260508031517 47 0.0 0.9 0.00 0.04 0.03 88 1015.6
20260508030517 47 0 0.9 0.9 0.00 0.04 0.03 89 1015.9
20260508025517 47 0.0 1.7 0.00 0.04 0.03 88 1015.9
20260508024517 47 0.0 0.9 0.00 0.04 0.03 87 1015.7
20260508023537 47 0.0 1.7 0.00 0.04 0.03 87 1015.6
20260508022517 48 0.0 1.7 0.00 0.04 0.03 86 1015.6
20260508021517 48 0.0 0.9 0.00 0.04 0.03 85 1015.3
20260508020517 48 0.0 1.7 0.00 0.04 0.03 85 1015.2
20260508015516 49 0.0 0.9 0.00 0.04 0.03 83 1015.0
20260508014537 49 0.0 0.9 0.00 0.04 0.03 83 1015.0
20260508013517 50 0.0 0.0 0.00 0.04 0.03 81 1014.9
20260508012517 50 0.0 1.7 0.00 0.04 0.03 80 1014.6
20260508011517 51 0.0 1.7 0.00 0.04 0.03 79 1014.6
20260508010517 52 0.0 0.9 0.00 0.05 0.03 78 1014.5
20260508005516 52 0.0 0.9 0.00 0.05 0.03 77 1014.2
20260508004517 53 0.0 0.9 0.00 0.05 0.03 75 1014.3
20260508003517 54 0.0 0.9 0.00 0.05 0.03 75 1014.3
20260508002517 55 0.0 0.9 0.00 0.05 0.03 72 1014.1
20260508001516 56 0.0 1.7 0.00 0.05 0.03 72 1014.0
20260508000516 57 315 0.9 1.7 0.00 0.06 0.03 70 1014.0
20260507235516 58 338 0.9 1.7 0.00 0.07 0.03 67 1014.0
20260507234517 59 0.0 1.7 0.00 0.07 0.03 59 1014.2
20260507233516 60 338 0.9 1.7 0.00 0.08 0.03 59 1014.1
20260507232516 61 0 1.7 3.5 0.00 0.13 0.03 54 1014.2
20260507231516 62 338 1.7 4.3 0.00 0.13 0.03 53 1014.3
20260507230536 62 315 2.6 7.8 0.00 0.14 0.03 54 1014.3
20260507225516 62 0 0.9 2.6 0.00 0.15 0.03 55 1014.4
20260507224536 62 315 0.9 2.6 0.00 0.15 0.03 59 1014.4
20260507223516 63 293 0.9 2.6 0.00 0.15 0.03 53 1014.5
20260507222516 63 315 0.9 2.6 0.00 0.15 0.03 54 1014.4
20260507221516 65 293 1.7 5.2 0.00 0.15 0.03 53 1014.6
20260507220516 65 293 2.6 7.8 0.00 0.15 0.03 51 1014.4
20260507215516 65 315 1.7 7.0 0.00 0.15 0.03 54 1014.4
20260507214516 64 225 0.9 2.6 0.00 0.15 0.03 53 1014.0
20260507213516 66 315 1.7 7.0 0.00 0.15 0.03 51 1013.9
20260507212516 65 338 1.7 3.5 0.00 0.15 0.03 55 1013.8
20260507211516 64 338 1.7 6.1 0.00 0.15 0.03 63 1013.8
20260507210516 62 293 0.9 4.3 0.00 0.15 0.03 59 1013.5
20260507205516 62 315 1.7 4.3 0.00 0.15 0.03 57 1013.5
20260507204516 62 293 1.7 6.1 0.00 0.15 0.03 57 1013.5
20260507203516 63 23 3.5 8.7 0.00 0.15 0.03 57 1013.7
20260507202536 63 338 1.7 6.1 0.00 0.15 0.03 59 1013.6
20260507201536 62 0 0.9 5.2 0.00 0.15 0.03 63 1013.8
20260507200516 62 45 0.9 3.5 0.00 0.15 0.03 62 1013.9
20260507195520 62 293 1.7 3.5 0.00 0.15 0.03 60 1013.9
20260507194516 61 315 0.9 2.6 0.00 0.15 0.03 64 1014.0
20260507193536 60 315 1.7 3.5 0.00 0.15 0.03 64 1014.1
20260507192516 61 0 2.6 6.1 0.00 0.15 0.03 63 1014.2
20260507191536 60 23 1.7 3.5 0.00 0.15 0.03 65 1014.3
20260507190536 60 338 0.9 2.6 0.00 0.15 0.03 68 1014.1
20260507185536 60 315 1.7 6.1 0.00 0.15 0.03 66 1014.1
20260507184516 59 315 0.9 2.6 0.00 0.15 0.03 69 1014.4
20260507183516 60 338 0.9 3.5 0.00 0.15 0.03 67 1014.2
20260507182516 60 338 1.7 4.3 0.00 0.15 0.03 68 1014.3
20260507181516 61 270 0.9 2.6 0.00 0.15 0.03 64 1014.3
20260507180516 60 293 1.7 6.1 0.00 0.15 0.03 69 1014.4
20260507175536 59 338 0.9 2.6 0.00 0.15 0.03 70 1014.2
20260507174535 59 0 0.9 3.5 0.00 0.15 0.03 72 1014.5
20260507173536 58 23 1.7 7.8 0.00 0.15 0.03 72 1014.5
20260507172536 58 315 1.7 5.2 0.00 0.15 0.03 73 1014.6
20260507171516 58 338 0.9 3.5 0.00 0.15 0.03 79 1014.6
20260507170515 58 23 0.9 1.7 0.00 0.15 0.03 79 1014.7
20260507165535 57 270 0.9 2.6 0.00 0.15 0.03 82 1014.7
20260507164516 57 225 0.9 1.7 0.00 0.15 0.03 82 1014.6
20260507163535 56 0.0 1.7 0.00 0.15 0.03 85 1014.5
20260507162515 55 338 0.9 1.7 0.00 0.15 0.03 83 1014.6
20260507161515 55 315 0.9 2.6 0.00 0.15 0.03 85 1014.4
20260507160535 55 293 0.9 2.6 0.00 0.15 0.03 86 1014.3
20260507155515 54 248 0.9 1.7 0.00 0.15 0.03 85 1014.3
20260507154515 54 0.0 1.7 0.00 0.15 0.03 89 1014.3
20260507153515 53 338 0.9 1.7 0.00 0.15 0.03 88 1014.1
20260507152517 53 0.0 1.7 0.00 0.15 0.03 88 1014.1
20260507151517 53 0.0 0.9 0.00 0.16 0.03 89 1014.0
20260507150517 53 23 0.9 1.7 0.00 0.16 0.03 88 1013.9
20260507145517 53 0.0 1.7 0.00 0.16 0.03 88 1013.9
20260507144517 53 0.0 0.9 0.00 0.18 0.03 88 1013.9
20260507143517 52 45 0.9 1.7 0.00 0.18 0.03 88 1013.9
20260507142517 52 45 0.9 2.6 0.00 0.18 0.03 90 1013.9
20260507141517 52 0 1.7 4.3 0.00 0.18 0.03 89 1013.9
20260507140537 52 315 2.6 4.3 0.00 0.18 0.03 89 1013.8
20260507135517 52 338 1.7 4.3 0.00 0.18 0.03 89 1013.6
20260507134517 53 338 0.9 2.6 0.00 0.18 0.03 90 1013.3
20260507133517 53 0 2.6 5.2 0.00 0.18 0.03 88 1013.3
20260507132517 53 315 2.6 5.2 0.00 0.18 0.03 90 1013.7
20260507131537 53 338 2.6 5.2 0.00 0.18 0.03 90 1013.4
20260507130537 53 315 3.5 7.0 0.00 0.18 0.03 90 1013.3
20260507125517 53 23 2.6 7.8 0.00 0.19 0.03 90 1013.3
20260507124517 53 315 1.7 6.1 0.00 0.19 0.03 91 1013.4
20260507123517 53 0.0 1.7 0.00 0.19 0.03 91 1013.6
20260507122517 53 338 0.9 3.5 0.00 0.19 0.03 91 1013.2
20260507121517 53 0.0 1.7 0.00 0.20 0.03 91 1013.5
20260507120517 53 0.0 1.7 0.00 0.21 0.03 92 1013.3